TimeMDT,TemperatureF,Dew PointF,Humidity,Sea Level PressureIn,VisibilityMPH,Wind Direction,Wind SpeedMPH,Gust SpeedMPH,PrecipitationIn,Events,Conditions,WindDirDegrees,DateUTC
12:15 AM,61.7,12.4,15,29.93,10.0,SSW,15.0,26.5,N/A,,Clear,210,2013-04-23 06:15:00
12:35 AM,61.3,13.1,15,29.93,10.0,SW,13.8,28.8,N/A,,Clear,230,2013-04-23 06:35:00
1:15 AM,60.1,16.3,18,29.92,10.0,WSW,20.7,35.7,N/A,,Clear,240,2013-04-23 07:15:00
1:35 AM,59.5,17.1,19,29.94,10.0,South,15.0,25.3,N/A,,Clear,170,2013-04-23 07:35:00
1:55 AM,52.3,21.7,30,29.95,10.0,SSE,11.5,16.1,N/A,,Clear,160,2013-04-23 07:55:00
2:15 AM,50.2,23.4,35,29.94,10.0,South,12.7,-,N/A,,Clear,170,2013-04-23 08:15:00
2:35 AM,48.7,25.2,40,29.95,10.0,SSE,13.8,20.7,N/A,,Clear,160,2013-04-23 08:35:00
2:55 AM,46.6,27.1,47,29.94,10.0,South,18.4,26.5,N/A,,Clear,170,2013-04-23 08:55:00
3:15 AM,45.3,28.0,51,29.95,10.0,South,18.4,25.3,N/A,,Clear,170,2013-04-23 09:15:00
3:35 AM,43.9,28.6,55,29.96,10.0,South,12.7,21.9,N/A,,Clear,170,2013-04-23 09:35:00
3:55 AM,42.6,28.9,58,29.96,10.0,South,15.0,19.6,N/A,,Clear,170,2013-04-23 09:55:00
4:15 AM,41.0,29.3,63,29.96,10.0,South,17.3,21.9,N/A,,Clear,170,2013-04-23 10:15:00
4:35 AM,40.3,29.3,65,29.96,10.0,South,15.0,19.6,N/A,,Clear,170,2013-04-23 10:35:00
4:55 AM,39.2,29.8,69,29.97,10.0,SSE,15.0,19.6,N/A,,Clear,160,2013-04-23 10:55:00
5:15 AM,38.3,30.0,72,29.98,10.0,South,11.5,21.9,N/A,,Clear,170,2013-04-23 11:15:00
5:35 AM,37.4,29.8,74,29.98,10.0,South,15.0,-,N/A,,Clear,170,2013-04-23 11:35:00
5:55 AM,36.5,29.3,75,29.98,10.0,SSE,15.0,19.6,N/A,,Clear,160,2013-04-23 11:55:00
6:15 AM,35.8,29.5,78,29.99,10.0,South,11.5,20.7,N/A,,Clear,170,2013-04-23 12:15:00
6:35 AM,35.1,29.1,79,30.00,10.0,SSE,10.4,18.4,N/A,,Clear,160,2013-04-23 12:35:00
6:55 AM,34.7,28.9,79,30.01,10.0,SSE,9.2,-,N/A,,Clear,160,2013-04-23 12:55:00
7:15 AM,34.7,29.1,80,30.01,10.0,SSE,10.4,-,N/A,,Clear,160,2013-04-23 13:15:00
7:35 AM,34.7,29.1,80,30.02,-9999.0,SSE,16.1,20.7,N/A,,Clear,160,2013-04-23 13:35:00
7:55 AM,35.6,28.9,77,30.02,10.0,South,16.1,-,N/A,,Clear,180,2013-04-23 13:55:00
8:15 AM,36.5,28.9,74,30.01,10.0,SSE,16.1,20.7,N/A,,Clear,160,2013-04-23 14:15:00
8:35 AM,37.2,28.9,72,30.01,10.0,South,13.8,20.7,N/A,,Clear,170,2013-04-23 14:35:00
8:55 AM,37.9,28.8,70,30.01,10.0,SSE,12.7,19.6,N/A,,Clear,160,2013-04-23 14:55:00
9:15 AM,39.0,28.9,67,30.01,10.0,South,11.5,23.0,N/A,,Clear,170,2013-04-23 15:15:00
9:35 AM,40.8,29.1,63,30.00,10.0,South,13.8,20.7,N/A,,Clear,170,2013-04-23 15:35:00
9:55 AM,41.2,28.4,60,30.00,10.0,South,17.3,24.2,N/A,,Clear,190,2013-04-23 15:55:00
10:15 AM,42.6,27.9,56,30.00,10.0,SSE,18.4,23.0,N/A,,Clear,160,2013-04-23 16:15:00
10:35 AM,44.1,27.5,52,30.00,10.0,South,16.1,20.7,N/A,,Clear,170,2013-04-23 16:35:00
10:55 AM,46.4,27.5,48,30.00,10.0,South,15.0,20.7,N/A,,Clear,170,2013-04-23 16:55:00
11:15 AM,48.6,27.9,45,30.00,10.0,SSE,9.2,-,N/A,,Clear,160,2013-04-23 17:15:00
11:35 AM,48.4,26.8,43,30.00,10.0,SSE,15.0,19.6,N/A,,Clear,160,2013-04-23 17:35:00
11:55 AM,49.6,26.4,41,29.99,10.0,SSE,13.8,21.9,N/A,,Scattered Clouds,150,2013-04-23 17:55:00
12:15 PM,51.4,26.2,38,29.99,10.0,SSE,13.8,18.4,N/A,,Mostly Cloudy,150,2013-04-23 18:15:00
12:35 PM,51.4,25.7,37,29.99,10.0,South,16.1,23.0,N/A,,Overcast,180,2013-04-23 18:35:00
12:55 PM,52.0,25.7,36,29.98,10.0,South,13.8,19.6,N/A,,Overcast,170,2013-04-23 18:55:00
1:15 PM,51.6,24.6,35,29.98,10.0,South,9.2,20.7,N/A,,Overcast,180,2013-04-23 19:15:00
1:35 PM,52.0,24.1,34,29.99,10.0,South,5.8,-,N/A,,Overcast,180,2013-04-23 19:35:00
1:55 PM,47.3,28.9,49,30.00,10.0,West,25.3,38.0,N/A,,Overcast,280,2013-04-23 19:55:00
2:15 PM,45.7,29.5,53,30.02,10.0,West,35.7,52.9,N/A,,Overcast,260,2013-04-23 20:15:00
2:35 PM,42.6,32.5,68,30.01,7.0,WSW,20.7,38.0,N/A,,Light Drizzle,250,2013-04-23 20:35:00
2:55 PM,44.4,25.9,48,29.99,10.0,West,35.7,48.3,N/A,,Overcast,270,2013-04-23 20:55:00
3:15 PM,46.8,21.9,37,29.99,10.0,SW,21.9,35.7,N/A,,Overcast,230,2013-04-23 21:15:00
3:35 PM,50.9,18.7,28,29.97,10.0,WSW,20.7,27.6,N/A,,Mostly Cloudy,250,2013-04-23 21:35:00
3:55 PM,51.6,17.1,26,29.96,10.0,West,19.6,31.1,N/A,,Mostly Cloudy,280,2013-04-23 21:55:00
4:15 PM,53.4,13.8,21,29.95,10.0,West,16.1,34.5,N/A,,Scattered Clouds,270,2013-04-23 22:15:00
4:35 PM,54.3,4.1,13,29.97,10.0,West,27.6,39.1,N/A,,Clear,260,2013-04-23 22:35:00
4:55 PM,54.0,3.2,13,29.98,10.0,West,27.6,34.5,N/A,,Clear,260,2013-04-23 22:55:00
5:15 PM,53.1,-0.6,11,30.00,10.0,West,16.1,35.7,N/A,,Clear,260,2013-04-23 23:15:00
5:35 PM,52.9,-3.8,10,30.00,10.0,West,17.3,35.7,N/A,,Clear,260,2013-04-23 23:35:00
5:55 PM,52.5,-4.4,10,30.02,10.0,West,20.7,27.6,N/A,,Clear,260,2013-04-23 23:55:00
6:15 PM,51.8,-3.8,10,30.02,10.0,WSW,19.6,29.9,N/A,,Clear,250,2013-04-24 00:15:00
6:35 PM,50.9,-3.6,10,30.04,10.0,WNW,12.7,24.2,N/A,,Clear,290,2013-04-24 00:35:00
6:55 PM,49.8,-5.4,10,30.04,10.0,West,8.1,17.3,N/A,,Clear,260,2013-04-24 00:55:00
7:15 PM,48.7,-7.8,9,30.05,10.0,West,18.4,29.9,N/A,,Clear,280,2013-04-24 01:15:00
7:35 PM,47.5,-5.8,11,30.07,10.0,West,17.3,21.9,N/A,,Clear,270,2013-04-24 01:35:00
7:55 PM,46.9,-6.2,11,30.07,10.0,West,12.7,25.3,N/A,,Clear,280,2013-04-24 01:55:00
8:15 PM,46.2,-5.6,11,30.08,10.0,West,15.0,19.6,N/A,,Clear,270,2013-04-24 02:15:00
8:35 PM,45.5,-4.0,13,30.09,10.0,West,9.2,26.5,N/A,,Clear,280,2013-04-24 02:35:00
8:55 PM,44.6,-2.4,14,30.11,10.0,WSW,6.9,-,N/A,,Clear,240,2013-04-24 02:55:00
9:15 PM,44.2,-4.2,13,30.13,10.0,SE,6.9,-,N/A,,Clear,130,2013-04-24 03:15:00
9:35 PM,43.7,-4.0,13,30.13,10.0,SE,8.1,-,N/A,,Clear,140,2013-04-24 03:35:00
9:55 PM,42.8,-4.0,14,30.13,10.0,SE,4.6,-,N/A,,Clear,140,2013-04-24 03:55:00
10:15 PM,39.9,6.3,25,30.14,10.0,South,11.5,-,N/A,,Clear,170,2013-04-24 04:15:00
10:35 PM,36.1,19.9,52,30.15,10.0,South,12.7,-,N/A,,Clear,170,2013-04-24 04:35:00
10:55 PM,34.9,21.6,58,30.14,10.0,South,12.7,18.4,N/A,,Clear,190,2013-04-24 04:55:00
11:15 PM,33.8,21.7,61,30.16,10.0,South,10.4,-,N/A,,Clear,170,2013-04-24 05:15:00
11:35 PM,34.0,20.7,58,30.17,10.0,South,10.4,17.3,N/A,,Clear,180,2013-04-24 05:35:00
11:55 PM,33.6,20.5,59,30.18,10.0,SSE,8.1,-,N/A,,Clear,160,2013-04-24 05:55:00